Location: *
(48.8489°N, 2.3218°E)
Time: 12:27:58
(UTC+00:00)

Cosmos 2221 Rocket - Pass Details

Date: 23 August 2019
Orbit: 621 x 647 km, 82.5° (Epoch: 22 October)

Event Time Altitude Azimuth Distance (km) Brightness Sun altitude
Rises 19:24:56 0° 350° (N) 2,915 7.6 -5.9°
Reaches altitude 10° 19:27:10 10° 350° (N) 2,003 6.7 -6.2°
Maximum altitude 19:31:37 90° 81° (E) 630 3.6 -6.9°
Drops below altitude 10° 19:36:02 10° 172° (S) 1,990 5.8 -7.6°
Sets 19:38:15 0° 172° (S) 2,894 6.7 -7.9°
